changsha , China , ASIA

  • Thursday
    January 23

    Moderate rain  Light rain

    46 °F  43 °F

    North  North

       3~4L 

  • Friday
    January 24

    Light rain  Moderate rain

    46 °F  41 °F

    North  North

    3~4L   3~4L 

  • Saturday
    January 25

    Moderate rain  Light rain

    43 °F  37 °F

    North  North

    3~4L   3~4L 

  • Sunday
    January 26

    Overcast  Cloudy

    41 °F  36 °F

    North  North

        

  • Monday
    January 27

    Cloudy  Cloudy

    41 °F  36 °F

    North  North

        

  • Tuesday
    January 28

    Sunny  Sunny

    48 °F  34 °F

    North  North

        

  • Wednesday
    January 29

    Sunny  Sunny

    50 °F  34 °F

    North  North

        

Date   Weather Temperature Humidity Total_rain Visibility Wind
11:00 Moderate rain 44°F 98.9% 6mm 999.9km Northwest  2.6m/s
14:00 Moderate rain 44°F 98.4% 9.2mm 999.9km Northwest  2.2m/s
17:00 Moderate rain 43°F 94.8% 5.5mm 999.9km Northwest  2.8m/s
20:00 Moderate rain 44°F 94.6% 3.2mm 999.9km Northwest  3.0m/s
23:00 Light rain 44°F 97.3% 1.2mm 999.9km Northwest  3.1m/s
02:00 Light rain 44°F 98.7% 1.1mm 999.9km Northwest  2.5m/s
05:00 Moderate rain 45°F 99% 3.9mm 999.9km Northwest  3.1m/s
08:00 Light rain 46°F 99% 1.7mm 999.9km Northwest  3.2m/s
11:00 Light rain 45°F 92.1% 1.2mm 999.9km Northwest  2.7m/s
14:00 Light rain 45°F 98% 1.3mm 999.9km Northwest  3.0m/s
17:00 Light rain 46°F 96.2% 1.8mm 999.9km Northwest  3.1m/s
20:00 Moderate rain 46°F 96.2% 5mm 999.9km Northwest  3.5m/s
23:00 Moderate rain 41°F 97.8% 5.7mm 999.9km Northwest  3.8m/s
02:00 Moderate rain 41°F 98.6% 3.1mm 999.9km Northwest  3.4m/s
05:00 Moderate rain 41°F 99% 6.8mm 999.9km Northwest  4.0m/s
08:00 Moderate rain 44°F 98.9% 8.3mm 999.9km Northwest  3.2m/s
11:00 Moderate rain 42°F 92.1% 6.3mm 999.9km Northwest  3.6m/s
14:00 Moderate rain 40°F 93.5% 6.5mm 999.9km Northwest  4.3m/s
17:00 Light rain 39°F 97.2% 1.5mm 999.9km Northwest  3.2m/s
20:00 Moderate rain 38°F 96.7% 5.9mm 999.9km Northwest  3.7m/s
23:00 Moderate rain 38°F 98% 6.3mm 999.9km Northwest  3.2m/s
02:00 Moderate rain 42°F 98.8% 3.1mm 999.9km Northwest  3.2m/s
05:00 Light rain 42°F 99% 0.1mm 999.9km Northwest  3.0m/s
08:00 Light rain 40°F 99% 0.1mm 999.9km Northwest  2.7m/s
11:00 Overcast 39°F 88.4% 0mm 999.9km Northwest  3.3m/s
14:00 Overcast 39°F 94.3% 0mm 999.9km Northwest  3.1m/s
17:00 Overcast 39°F 94% 0mm 999.9km Northwest  3.1m/s
20:00 Overcast 41°F 94.4% 0mm 999.9km Northwest  2.3m/s
23:00 Cloudy 37°F 96.6% 0mm 999.9km Northwest  2.5m/s
02:00 Cloudy 37°F 98% 0mm 999.9km Northwest  2.6m/s
05:00 Cloudy 36°F 96.3% 0mm 999.9km Northwest  2.3m/s
08:00 Cloudy 36°F 88.9% 0mm 999.9km Northwest  2.2m/s
11:00 Cloudy 38°F 85.7% 0mm 999.9km Northwest  2.2m/s
14:00 Cloudy 41°F 93% 0mm 999.9km Northwest  2.5m/s
17:00 Cloudy 40°F 91.8% 0mm 999.9km Northeast  2.1m/s
20:00 Cloudy 39°F 92.6% 0mm 999.9km Northeast  2.5m/s
23:00 Cloudy 37°F 96.7% 0mm 999.9km Northwest  2.1m/s
02:00 Cloudy 36°F 98% 0mm 999.9km Northwest  1.9m/s
05:00 Cloudy 36°F 96.6% 0mm 999.9km Northwest  3.3m/s
08:00 Cloudy 36°F 86.9% 0mm 999.9km Northwest  1.7m/s
11:00 Sunny 46°F 86.5% 0mm 999.9km Northwest  3.3m/s
14:00 Sunny 47°F 90.4% 0mm 999.9km Northwest  2.1m/s
17:00 Sunny 48°F 90.6% 0mm 999.9km Northwest  1.8m/s
20:00 Sunny 44°F 91.1% 0mm 999.9km Northwest  2.0m/s
23:00 Sunny 39°F 94.8% 0mm 999.9km Northwest  2.0m/s
02:00 Sunny 36°F 98% 0mm 999.9km Northwest  1.9m/s
05:00 Sunny 34°F 97.9% 0mm 999.9km Northwest  2.8m/s
08:00 Sunny 39°F 96.2% 0mm 999.9km Northwest  1.8m/s
11:00 Sunny 47°F 80.7% 0mm 999.9km Northwest  2.5m/s
14:00 Sunny 49°F 86% 0mm 999.9km Northwest  2.6m/s
17:00 Sunny 50°F 88.8% 0mm 999.9km Northwest  2.4m/s
20:00 Sunny 44°F 91.1% 0mm 999.9km Northwest  2.1m/s
23:00 Sunny 39°F 94.5% 0mm 999.9km Northwest  1.9m/s
02:00 Sunny 38°F 95.5% 0mm 999.9km Northwest  2.3m/s
05:00 Sunny 34°F 98% 0mm 999.9km Northeast  2.5m/s